Flag for South Korea Weather past 2 weeks in Incheon, South Korea

Now
48 °F

Passing clouds.


Feels Like: 45 °F
Forecast: 35 / 54 °F
Wind: 8 mph from Northwest

Location: Incheon International Airport

Current Time: Mar 27, 2015 at 4:24:03 PM

Latest Report: Mar 27, 2015 at 4:00 PM


Visibility: N/A

Pressure: 30.27 "Hg

Humidity: 62%

Dew point: 36 °F

Location of IncheonLocation

Historic Weather in Incheon — Graph

°F

Incheon temperature yesterday

Maximum temperature yesterday: 52 °F (at 1:00 PM)
Minimum temperature yesterday: 34 °F (at 2:30 AM)
Average temperature yesterday: 42 °F

Past Weeks' High & Low Weather Summary

 TemperatureHumidityPressure
High63 °F (Mar 20, 1:00 PM)93% (Mar 13, 6:00 AM)30.60 "Hg (Mar 13, 6:00 AM)
Low28 °F (Mar 14, 4:00 AM)13% (Mar 24, 1:30 PM)29.77 "Hg (Mar 18, 4:30 PM)
Average43 °F57%30.19 "Hg
* Reported Mar 12 3:00 PM — Mar 27 3:00 PM, Incheon, Weather by CustomWeather, © 2015

Note: Actual official high and low records may vary slightly from our data, if they occured in-between our weather recording intervals... More about our weather records

Advertising

Incheon weather history for previous 24 hours

 ConditionsComfort  
Time TempWeatherWind HumidityBarometerVisibility
3:00 PM
Fri, Mar 27
46 °FPassing clouds.9 mph66%30.30 "HgN/A
2:30 PM48 °FScattered clouds.12 mph66%30.30 "HgN/A
2:00 PM46 °FScattered clouds.12 mph71%30.33 "HgN/A
1:30 PM48 °FPassing clouds.10 mph66%30.33 "HgN/A
1:00 PM48 °FPassing clouds.12 mph66%30.33 "HgN/A
12:00 PM48 °FPassing clouds.12 mph62%30.36 "HgN/A
11:30 AM48 °FPassing clouds.9 mph62%30.36 "HgN/A
11:00 AM48 °FPassing clouds.7 mph66%30.36 "Hg5 mi
10:30 AM48 °FPassing clouds.5 mph66%30.36 "Hg5 mi
10:00 AM46 °FScattered clouds.2 mph76%30.39 "Hg5 mi
9:30 AM45 °FScattered clouds.5 mph76%30.39 "Hg5 mi
9:00 AM43 °FScattered clouds.2 mph87%30.39 "Hg5 mi
8:30 AM41 °FPassing clouds.1 mph93%30.39 "Hg5 mi
8:00 AM41 °FClear.1 mph87%30.39 "Hg4 mi
7:30 AM36 °FClear.1 mph93%30.39 "Hg4 mi
7:00 AM37 °FFog.2 mph93%30.39 "Hg2 mi
6:00 AM34 °FPassing clouds.1 mph93%30.39 "Hg2 mi
5:30 AM36 °FFog.3 mph93%30.39 "Hg2 mi
5:00 AM36 °FFog.2 mph93%30.39 "Hg2 mi
4:30 AM37 °FPassing clouds.5 mph87%30.39 "Hg4 mi
4:00 AM36 °FPassing clouds.5 mph93%30.42 "Hg4 mi
3:30 AM37 °FPassing clouds.3 mph87%30.42 "Hg4 mi
3:00 AM37 °FPassing clouds.3 mph87%30.42 "Hg4 mi
2:30 AM39 °FPassing clouds.1 mph87%30.42 "Hg4 mi
2:00 AM41 °FPassing clouds.1 mph81%30.45 "Hg5 mi
1:30 AM41 °FPassing clouds.3 mph87%30.48 "HgN/A
1:00 AM41 °FPassing clouds.6 mph87%30.48 "HgN/A
12:30 AM41 °FPassing clouds.6 mph87%30.48 "HgN/A
12:00 AM41 °FPassing clouds.6 mph81%30.48 "HgN/A
11:30 PM
Thu, Mar 26
41 °FPassing clouds.6 mph81%30.48 "HgN/A
11:00 PM41 °FPassing clouds.6 mph81%30.48 "HgN/A
10:30 PM43 °FClear.7 mph76%30.48 "Hg10 mi
10:00 PM43 °FClear.7 mph76%30.48 "Hg10 mi
9:30 PM43 °FPassing clouds.8 mph76%30.48 "HgN/A
9:00 PM43 °FPassing clouds.9 mph81%30.48 "HgN/A
8:30 PM43 °FClear.10 mph81%30.48 "Hg10 mi
8:00 PM43 °FClear.9 mph81%30.48 "Hg10 mi
7:30 PM43 °FSunny.12 mph76%30.48 "Hg10 mi
7:00 PM43 °FSunny.10 mph71%30.45 "Hg10 mi
6:30 PM45 °FSunny.9 mph66%30.45 "Hg10 mi
6:00 PM46 °FSunny.10 mph62%30.45 "Hg10 mi
5:30 PM46 °FPassing clouds.10 mph57%30.45 "HgN/A
5:00 PM48 °FPassing clouds.9 mph54%30.48 "HgN/A
4:30 PM48 °FPassing clouds.10 mph54%30.48 "HgN/A
4:00 PM48 °FSunny.13 mph54%30.48 "Hg10 mi
Weather by CustomWeather, © 2015

See weather overviewHow to use our weather pages